Weather History for Detroit, MI

Change the Weather History Date:

Sunday, June 24, 2012

  Actual Average Record
Temperature  
Mean Temperature 75 °F -  
Max Temperature 86 °F 78 °F 97 °F (1952)
Min Temperature 66 °F 60 °F 46 °F (1979)
Cooling Degree Days 10    
Growing Degree Days 25 (Base 50)    
Moisture  
Dew Point 58 °F    
Average Humidity 53    
Maximum Humidity 84    
Minimum Humidity 34    
Precipitation  
Precipitation 0.00 in - - ()
Sea Level Pressure  
Sea Level Pressure 29.96 in    
Wind  
Wind Speed 6 mph (WSW)    
Max Wind Speed 13 mph    
Max Gust Speed 18 mph    
Visibility 10 miles    
Events      
Averages and records for this station are not official NWS values.
T = Trace of Precipitation, MM = Missing Value Source: NWS Daily Summary

Daily Weather History Graph

Daily Weather History Graph

Search for Another Location

Airport:

Trip Planner

Search our weather history database for the weather conditions in past years. The results will help you decide how hot, cold, wet, or windy it might be!

Date:

Astronomy

Jun. 24, 2012 Rise Set
Actual Time 5:56 AM EDT 9:13 PM EDT
Civil Twilight 5:21 AM EDT 9:47 PM EDT
Nautical Twilight 4:36 AM EDT 10:32 PM EDT
Astronomical Twilight 3:41 AM EDT 11:27 PM EDT
Moon 11:06 AM EDT (6/24) No Moon Set
Length of Visible Light 16h 26m
Length of Day
15h 17m
Waxing Crescent, 24% of the Moon is Illuminated
Jun 24
Waxing Crescent
Jun 26
First Quarter
Jul 3
Full
Jul 10
Last Quarter
Jul 19
New

Hourly Weather History & Observations

Time (EDT) Temp. Heat Index Dew Point Humidity Pressure Visibility Wind Dir Wind Speed Gust Speed Precip Events Conditions
12:53 AM 72.0 °F - 57.0 °F 59% 30.05 in 10.0 mi South 4.6 mph - N/A   Clear
1:53 AM 71.1 °F - 57.9 °F 63% 30.04 in 10.0 mi South 4.6 mph - 0.00 in   Scattered Clouds
2:53 AM 71.1 °F - 57.9 °F 63% 30.04 in 10.0 mi South 4.6 mph - N/A   Partly Cloudy
3:53 AM 71.1 °F - 57.9 °F 63% 30.03 in 8.0 mi Calm Calm - N/A   Partly Cloudy
4:53 AM 71.1 °F - 57.9 °F 63% 30.03 in 10.0 mi SSE 3.5 mph - N/A   Clear
5:53 AM 70.0 °F - 57.9 °F 65% 30.02 in 10.0 mi SE 3.5 mph - N/A   Clear
6:53 AM 70.0 °F - 59.0 °F 68% 30.02 in 10.0 mi SSE 3.5 mph - N/A   Partly Cloudy
7:53 AM 71.1 °F - 60.1 °F 68% 30.01 in 10.0 mi SSE 4.6 mph - 0.00 in   Mostly Cloudy
8:53 AM 73.9 °F - 60.1 °F 62% 30.01 in 10.0 mi SSW 8.1 mph - N/A   Overcast
9:53 AM 75.0 °F - 57.0 °F 53% 30.00 in 10.0 mi South 6.9 mph - N/A   Scattered Clouds
10:53 AM 77.0 °F - 57.0 °F 50% 29.99 in 10.0 mi SSW 9.2 mph - N/A   Clear
11:53 AM 80.1 °F 80.6 °F 57.9 °F 47% 29.97 in 10.0 mi SW 10.4 mph - N/A   Mostly Cloudy
12:53 PM 82.9 °F 82.1 °F 55.9 °F 39% 29.96 in 10.0 mi West 9.2 mph - N/A   Partly Cloudy
1:53 PM 84.2 °F 83.0 °F 55.4 °F 37% 29.95 in 10.0 mi WNW 6.9 mph - N/A   Overcast
2:53 PM 84.0 °F 82.6 °F 54.0 °F 35% 29.93 in 10.0 mi West 12.7 mph - N/A   Overcast
3:53 PM 84.9 °F 83.3 °F 54.0 °F 34% 29.91 in 10.0 mi WNW 11.5 mph 18.4 mph N/A   Mostly Cloudy
4:53 PM 84.0 °F 82.9 °F 55.0 °F 37% 29.91 in 10.0 mi West 11.5 mph - N/A   Overcast
5:53 PM 84.0 °F 83.3 °F 57.0 °F 40% 29.89 in 10.0 mi WNW 8.1 mph 17.3 mph N/A   Overcast
6:53 PM 84.0 °F 83.3 °F 57.0 °F 40% 29.88 in 10.0 mi WNW 8.1 mph - N/A   Overcast
7:53 PM 82.9 °F 82.4 °F 57.0 °F 41% 29.87 in 10.0 mi NNW 5.8 mph - N/A   Scattered Clouds
8:53 PM 82.9 °F 82.4 °F 57.0 °F 41% 29.86 in 10.0 mi NW 5.8 mph - N/A   Overcast
9:53 PM 81.0 °F 81.1 °F 57.9 °F 45% 29.88 in 10.0 mi North 6.9 mph - N/A   Mostly Cloudy
10:53 PM 66.9 °F - 62.1 °F 84% 29.91 in 10.0 mi NE 9.2 mph - 0.00 in   Overcast
11:53 PM 68.0 °F - 62.1 °F 81% 29.92 in 10.0 mi NNE 8.1 mph - N/A   Mostly Cloudy